FW6884 Weather Reports


Display with metric or nautical units.
time (UTC)temp
F
wind
direction
speed
MPH
gust
MPH
rain 1hr
in
rain 24hr
in
rain mn
in
humidity
%
barometer
mb
20200703223111 73 106 7.0 13.0 0.00 0.00 0.00 28 1015.1
20200703221719 72 42 4.0 9.0 0.00 0.00 0.00 30 1015.0
20200703220123 71 119 4.0 11.0 0.00 0.00 0.00 30 1015.1
20200703214710 72 101 6.0 11.0 0.00 0.00 0.00 28 1015.1
20200703213052 73 121 4.0 10.0 0.00 0.00 0.00 28 1015.1
20200703211638 73 29 4.0 11.0 0.00 0.00 0.00 28 1015.1
20200703210128 71 108 3.0 9.0 0.00 0.00 0.00 28 1015.1
20200703204614 72 131 4.0 11.0 0.00 0.00 0.00 27 1015.2
20200703203131 72 42 1.0 9.0 0.00 0.00 0.00 28 1015.1
20200703201606 71 89 4.0 13.0 0.00 0.00 0.00 30 1015.0
20200703200132 71 27 4.0 9.0 0.00 0.00 0.00 30 1015.1
20200703194613 71 113 6.0 10.0 0.00 0.00 0.00 32 1015.0
20200703193059 70 360 0.0 7.0 0.00 0.00 0.00 31 1015.1
20200703191606 71 334 2.0 9.0 0.00 0.00 0.00 31 1015.2
20200703190136 71 37 3.0 9.0 0.00 0.00 0.00 30 1015.1
20200703184611 71 22 2.0 9.0 0.00 0.00 0.00 29 1015.2
20200703183031 70 39 2.0 10.0 0.00 0.00 0.00 29 1015.2
20200703181530 70 135 3.0 8.0 0.00 0.00 0.00 29 1015.1
20200703180025 70 132 4.0 8.0 0.00 0.00 0.00 28 1015.2
20200703174517 69 331 3.0 10.0 0.00 0.00 0.00 27 1015.2
20200703173038 70 276 1.0 5.0 0.00 0.00 0.00 27 1015.0
20200703171507 70 30 3.0 9.0 0.00 0.00 0.00 26 1015.0
20200703170033 70 5 2.0 8.0 0.00 0.00 0.00 28 1014.9
20200703164700 70 342 2.0 5.0 0.00 0.00 0.00 27 1014.7
20200703163342 69 260 2.0 7.0 0.00 0.00 0.00 27 1014.8
20200703161555 69 267 4.0 8.0 0.00 0.00 0.00 24 1014.8
20200703160122 69 269 2.0 4.0 0.00 0.00 0.00 25 1014.8
20200703154616 68 311 1.0 5.0 0.00 0.00 0.00 25 1014.6
20200703153051 66 337 2.0 6.0 0.00 0.00 0.00 25 1014.7
20200703151548 65 296 2.0 4.0 0.00 0.00 0.00 27 1014.5
20200703150049 63 328 2.0 6.0 0.00 0.00 0.00 27 1014.3
20200703144545 62 329 2.0 4.0 0.00 0.00 0.00 29 1014.3
20200703143101 61 319 1.0 3.0 0.00 0.00 0.00 27 1014.3
20200703141556 60 317 2.0 3.0 0.00 0.00 0.00 26 1014.0
20200703140051 59 317 1.0 3.0 0.00 0.00 0.00 28 1013.8
20200703134538 58 321 0.0 2.0 0.00 0.00 0.00 26 1013.7
20200703133017 57 321 0.0 2.0 0.00 0.00 0.00 25 1013.6
20200703131518 57 321 1.0 2.0 0.00 0.00 0.00 23 1013.5
20200703130019 57 321 0.0 2.0 0.00 0.00 0.00 22 1013.4
20200703124526 57 323 0.0 2.0 0.00 0.00 0.00 21 1013.1
20200703123016 57 325 0.0 2.0 0.00 0.00 0.00 19 1013.1
20200703121508 58 221 0.0 2.0 0.00 0.00 0.00 18 1012.9
20200703120005 57 314 1.0 3.0 0.00 0.00 0.00 17 1012.9
20200703114515 58 312 0.0 3.0 0.00 0.00 0.00 17 1012.7
20200703113017 58 284 1.0 4.0 0.00 0.00 0.00 15 1012.6
20200703111503 57 274 1.0 4.0 0.00 0.00 0.00 16 1012.5
20200703110003 57 338 2.0 3.0 0.00 0.00 0.00 16 1012.5
20200703104707 57 335 1.0 3.0 0.00 0.00 0.00 15 1012.3
20200703103058 57 323 2.0 4.0 0.00 0.00 0.00 15 1012.3
20200703101603 57 335 2.0 4.0 0.00 0.00 0.00 16 1012.3
20200703100112 58 347 2.0 4.0 0.00 0.00 0.00 16 1012.2
20200703094704 59 321 1.0 4.0 0.00 0.00 0.00 16 1012.2
20200703093150 58 328 2.0 4.0 0.00 0.00 0.00 15 1012.2
20200703091611 58 341 1.0 4.0 0.00 0.00 0.00 13 1012.1
20200703090137 57 338 1.0 4.0 0.00 0.00 0.00 13 1012.2
20200703084641 58 348 2.0 4.0 0.00 0.00 0.00 14 1012.3
20200703083108 58 325 1.0 4.0 0.00 0.00 0.00 15 1012.2
20200703081651 58 306 2.0 4.0 0.00 0.00 0.00 16 1012.1
20200703080105 58 328 2.0 4.0 0.00 0.00 0.00 16 1012.2
20200703074558 58 296 1.0 3.0 0.00 0.00 0.00 17 1012.1
20200703073156 59 318 2.0 4.0 0.00 0.00 0.00 18 1012.1
20200703071557 59 322 2.0 4.0 0.00 0.00 0.00 19 1012.2
20200703070049 59 328 2.0 5.0 0.00 0.00 0.00 21 1012.4
20200703064613 59 302 1.0 3.0 0.00 0.00 0.00 22 1012.2
20200703063134 60 315 2.0 4.0 0.00 0.00 0.00 22 1012.3
20200703061608 59 301 2.0 4.0 0.00 0.00 0.00 23 1012.3
20200703060058 59 360 2.0 4.0 0.00 0.00 0.00 22 1012.3
20200703054614 59 322 0.0 4.0 0.00 0.00 0.00 21 1012.4
20200703053109 59 328 1.0 4.0 0.00 0.00 0.00 21 1012.4
20200703051546 59 310 2.0 5.0 0.00 0.00 0.00 21 1012.4
20200703050051 59 325 2.0 4.0 0.00 0.00 0.00 24 1012.2
20200703044539 59 296 2.0 4.0 0.00 0.00 0.00 29 1012.1
20200703043040 59 309 1.0 3.0 0.00 0.00 0.00 32 1011.8
20200703041625 60 296 2.0 3.0 0.00 0.00 0.00 30 1011.6
20200703040030 60 355 1.0 3.0 0.00 0.00 0.00 31 1011.4
20200703034551 61 324 1.0 3.0 0.00 0.00 0.00 31 1011.2
20200703033025 61 288 1.0 4.0 0.00 0.00 0.00 31 1011.0
20200703031543 62 350 1.0 4.0 0.00 0.00 0.00 32 1010.8
20200703030030 63 273 2.0 7.0 0.00 0.00 0.00 33 1010.6
20200703024523 64 292 0.0 3.0 0.00 0.00 0.00 37 1010.4
20200703023112 65 355 1.0 3.0 0.00 0.00 0.00 36 1010.3
20200703021530 66 279 1.0 4.0 0.00 0.00 0.00 36 1010.4
20200703020105 68 322 1.0 3.0 0.00 0.00 0.00 33 1010.5
20200703014607 69 303 1.0 3.0 0.00 0.00 0.00 34 1010.3
20200703013049 70 342 1.0 3.0 0.00 0.00 0.00 34 1010.2
20200703011537 70 92 1.0 4.0 0.00 0.00 0.00 35 1010.5
20200703010108 70 281 2.0 4.0 0.00 0.00 0.00 35 1010.4
20200703004538 70 19 1.0 5.0 0.00 0.00 0.00 35 1010.5
20200703003015 71 340 3.0 5.0 0.00 0.00 0.00 34 1010.5
20200703001515 70 62 2.0 5.0 0.00 0.00 0.00 34 1010.5
20200703000021 71 148 2.0 6.0 0.00 0.00 0.00 34 1010.9
20200702234530 71 115 3.0 7.0 0.00 0.00 0.00 35 1010.8
20200702231542 69 21 2.0 8.0 0.00 0.00 0.00 39 1010.8
20200702230053 69 163 4.0 8.0 0.00 0.00 0.00 40 1010.8
20200702224510 70 237 2.0 9.0 0.00 0.00 0.00 38 1010.8